THOR ABLESTAR DEB, 4005

Orbit data source: Space-Track

THOR ABLESTAR DEB, 4005 is space debris in LEO originally from a launch on Thu, 29 Jun 1961 UTC launched from the Air Force Eastern Test Range (AFETR). Debris objects in space refer to the collection of defunct objects orbiting the Earth. Examples of debris include non-operational satellites, rocket bodies, and fragments generated from explosions, collisions, or faulty payload assembly.

Loading next visibility...
Identifier
4005, 1961-015JK
Orbit
LEO
Country
Flag of USUS
Related business
Manufacturer
Unknown
Mission
Spacecraft
Bus & Motor
Unknown
Mass
Unknown
Launch date (UTC)
1961-06-29 (64 years ago)
Launch vehicle
Unknown
Launch site
Air Force Eastern Test Range (AFETR)
Object type
Payload
Rocket body
Debris
Shape & HBR
Unknown shape, 0.1 m
Radar Cross Section
Small (<0.1 m²)

Expand to show TLE details & history
Last TLE update: 1 day ago

TLE from 1 day ago
0 THOR ABLESTAR DEB
1 04005U 61015JK  25302.85309312  .00000715  00000-0  76271-3 0  9994
2 04005  66.7492 214.9576 0084814  82.6291 338.6688 13.78178819856051
Epoch: 2025-10-29T20:28Z
TLE epoch observation values (Epoch: 2025-10-29T20:28:27.245Z)
Latitude
53.54724°
Longitude
-95.22463°
Altitude
920.288 km
Speed
7.426 km/s
True Right ascension
16h 41m 14s
True Declination
53° 23' 11"
Sunlit
Object was in daylight at epoch
Visualization orbit readout
Latitude
Unknown
Longitude
Unknown
Altitude
Unknown
Speed
Unknown
Apparent Right ascension
Unknown
Apparent Declination
Unknown
Sunlit
N/A
Visualization observer readout
Local Sidereal Time
18:18:32
Azimuth
Unknown
Elevation
Unknown
Doppler factor
Unknown
Orbital elements
Apogee altitude
1,031.074 km
Perigee altitude
906.45 km
Semi-major axis
7,346.899 km
Eccentricity
0.00848
Inclination
66.7492°
RAAN
214.9576°
Arg. of periapsis
82.6291°
True anomaly
338.31174°
Mean anomaly
338.6688°
Eccentric anomaly
338.49063°
Mean motion
3.44657 °/min
Orbital period
104.45 mins
BSTAR
0.00076271
Loading maneuver chart data...
Computing Atmospheric mass density...

Documentation

Showing up to 5 results
|